Regional Weather Roundup
Issued by NWS

Home | Current Version | Previous Version | Graphics & Text | Print | Product List | Glossary On
Versions: 1 2 3 4 5 6 7 8 9 10 11 12 13 14 15 16 17 18 19 20 21 22 23 24 25 26 27 28 29 30 31 32 33 34 35 36 37 38 39 40 41 42 43 44 45 46 47 48 49 50
000
ASUS45 KBOU 060307
RWRCO

WEATHER ROUNDUP FOR COLORADO
NATIONAL WEATHER SERVICE DENVER/BOULDER CO
900 PM MDT TUE MAY 05 2015

NOTE: "FAIR" INDICATES FEW OR NO CLOUDS BELOW 12000 FEET WITH NO
SIGNIFICANT WEATHER AND/OR OBSTRUCTIONS TO VISIBILITY.

COZ001>005-013-030-031-060400-
...NORTHWEST COLORADO...

CITY           SKY/WX    TMP DP  RH WIND       PRES   REMARKS
CRAIG          CLOUDY    52  44  74 W8        29.82R
HAYDEN         CLOUDY    48  43  81 E7        29.83R
MEEKER         CLOUDY    53  45  74 CALM      29.83R
MOUNT WERNER   NOT AVBL
STEAMBOAT SPGS CLOUDY    48  42  79 CALM      29.84R
WALDEN         CLOUDY    43  39  87 SE6       29.86S
$$

COZ006>008-011-060400-
...WEST CENTRAL VALLEYS...

CITY           SKY/WX    TMP DP  RH WIND       PRES   REMARKS
GRAND JUNCTION CLOUDY    53  51  93 NW3       29.80R
MONTROSE       CLOUDY    52  48  86 NW7       29.86R
EAGLE          CLOUDY    48  46  93 W8        29.87R
RIFLE          LGT RAIN  51  47  86 NE5       29.82R
DELTA          CLOUDY    55  51  86 CALM      29.83R
NUCLA          LGT RAIN  50  48  93 E3        29.90R
$$

COZ017>023-064>068-060400-
...SOUTHWEST COLORADO...

CITY           SKY/WX    TMP DP  RH WIND       PRES   REMARKS
DURANGO        LGT RAIN  47  45  93 SW7       29.92R
CORTEZ         LGT RAIN  51  48  89 CALM      29.90R
PAGOSA SPRINGS RAIN      45  44  96 SW3       29.95R
TELLURIDE      RAIN      41  41  98 CALM      29.99R
WOLF CREEK PAS NOT AVBL
$$

COZ009-010-012-014-032>034-037-058>063-060400-
...CENTRAL COLORADO...

CITY           SKY/WX    TMP DP  RH WIND       PRES   REMARKS
ASPEN          LGT RAIN N/A N/A N/A N3        29.89R
BUENA VISTA    NOT AVBL
COPPER MTN     CLOUDY    37  34  87 W8        30.02S
BERTHOUD PASS  HAZE      28  19  69 CALM      30.05S VSB 1/4
COTTONWOOD PAS DRZL/FOG  41  37  87 CALM      29.95S VSB 1/4
GUNNISON       CLOUDY    43  37  81 NE5       29.93R
KREMMLING      LGT RAIN  46  39  76 NW9       29.86R
LEADVILLE      LGT RAIN  36  36 100 CALM      29.93R
MONARCH PASS   SNOW      30  30 100 MISG      30.11S VSB<1/4
SALIDA         CLOUDY    46  45  95 N3        29.95S
SUNLIGHT       LGT SNOW  36  34  93 CALM      30.02R VSB 3/4
WILKERSON PASS LGT SNOW  32  32 100 MISG      30.01S VSB 3/4
$$

COZ069>075-060400-
...SAN LUIS VALLEY/SANGRE DE CRISTO MOUNTAINS...

CITY           SKY/WX    TMP DP  RH WIND       PRES   REMARKS
ALAMOSA        CLOUDY    47  40  76 E3        29.89R
LA VETA PASS   MOCLDY   N/A N/A N/A MISG      29.95S
SAGUACHE       DRIZZLE   43  41  93 NW5       29.91S
$$

COZ035-036-038>040-060400-
...NORTHERN COLORADO FRONT RANGE...

CITY           SKY/WX    TMP DP  RH WIND       PRES   REMARKS
DENVER INTL AP LGT RAIN  50  48  93 N10       29.79S
DMNS CITY PARK   N/A     50  49  95 N3        29.80S
AURORA         NOT AVBL
FRONT RANGE AP LGT RAIN  52  50  93 NW9       29.79F
ERIE MUNI ARPT CLOUDY    51  50  95 N7        29.80S
BOULDER MUN AP LGT RAIN  50  50 100 NE5       29.80S
CENTENNIAL     LGT RAIN  49  48  97 NW7       29.81S
BROOMFIELD     DRIZZLE   50  50 100 N7        29.82S FOG
FORT COLLINS   CLOUDY    52  48  87 N5        29.82F
LONGMONT       DRIZZLE   53  50  91 N5        29.82F
$$

COZ041-046-047-076>085-087-088-060400-
...PIKES PEAK/PALMER DIVIDE AND SOUTHERN FOOTHILLS...

CITY           SKY/WX    TMP DP  RH WIND       PRES   REMARKS
COLO. SPRINGS  CLOUDY    48  42  80 NW8       29.81F
A. F. ACADEMY  LGT RAIN  46  46  99 N5        29.82S
ELLICOTT       CLOUDY   N/A N/A N/A N6        29.79S
FALCON         CLOUDY    45  42  91 NW8       29.83S
FORT CARSON    MOCLDY    47  44  88 NW6       29.79S
LIMON          CLOUDY    50  48  93 W15       29.75R
MONUMENT HILL  DRIZZLE   43  41  93 W7        29.83S
TRINIDAD       CLOUDY    52  47  83 W6        29.82R
$$

COZ042>045-048>051-090-091-060400-
...NORTHEAST COLORADO...

CITY           SKY/WX    TMP DP  RH WIND       PRES   REMARKS
GREELEY ARPT   CLOUDY    52  46  82 N9        29.80F
AKRON          CLOUDY    53  53 100 SE18G30   29.74S
BURLINGTON     MOCLDY    54  52  93 SE13      29.77R
WRAY           RAIN     N/A N/A N/A E15G26    29.77S
STERLING       CLOUDY    54  54 100 E9G18     29.75F
HOLYOKE        NOT AVBL
FORT MORGAN    DRIZZLE   53  51  95 E13G20    29.75F
$$

COZ086-089-092>099-060400-
...SOUTHEAST COLORADO...

CITY           SKY/WX    TMP DP  RH WIND       PRES   REMARKS
PUEBLO         CLOUDY    51  49  92 SW6       29.78R
LA JUNTA       MOCLDY    55  52  89 W8        29.75R
LAMAR          LGT RAIN  56  52  86 S7        29.73F
SPRINGFIELD      N/A     50  47  89 SE7       29.81R
$$


USA.gov is the U.S. government's official web portal to all federal, state and local government web resources and services.